Weather in Tauz

Azerbaijan     40°59′39″N   45°37′04″E
temp.,
°C
wind,
m/s
gust,
m/s
humid.,
%
clouds,
%
prec.,
mm/h
press.,
hPa
HPBL,
m
14 may, fri
fri1401:00+16sw337736 0.0 101721
04:00+15sw227790 0.0 101721
07:00+17wsw22750 0.0 101849
10:00+21nne21610 0.0 1017637
13:00+24ene22490 0.0 10161124
16:00+26e22440 0.0 10151361
19:00+24ne11591 0.2 101418
22:00+18sw55730 0.9 101654
15 may, sat
sat1501:00+17sw32700 0.0 101620
04:00+16wsw22730 0.0 101619
07:00+17wsw22740 0.0 101765
10:00+21n22600 0.0 1016673
13:00+24ne22500 0.0 10151125
16:00+26e33410 0.0 10131394
19:00+23e37490 0.0 1013161
22:00+18sw43485 0.0 101531
16 may, sun
sun1601:00+17sw335230 0.0 101421
04:00+15wsw33584 0.0 101522
07:00+16wsw22645 0.0 101550
10:00+20nne21500 0.0 1015604
13:00+24ene33370 0.0 10131258
16:00+26e343423 0.1 10111653
19:00+24ese114178 0.1 101013
22:00+18sw4559100 0.5 101254
17 may, mon
mon1701:00+17ssw3258100 0.0 101321
04:00+15wsw2258100 0.0 101219
07:00+16wsw226398 0.0 101246
10:00+21n21490 0.0 1012579
13:00+25nne21424 0.0 1010860
16:00+26e2339100 0.0 1008898
19:00+24s2354100 0.0 100747
22:00+19wsw235822 0.0 101132
18 may, tue
tue1801:00+18sw2259100 0.0 101031
04:00+16w2368100 0.1 100944
07:00+17w23680 0.1 1009107
10:00+21nnw346354 0.1 1009513
13:00+20nw576844 0.8 1010647
16:00+20nnw6765100 1.1 1012632
19:00+19nnw236695 0.4 1013264
22:00+15w237986 0.4 101448